Location: Croydon
(51.3762°N, 0.0982°W)
Time: 11:40:19
(UTC+00:00)

KKS-1 - Pass Details

Date: 19 October 2019
Orbit: 636 x 651 km, 98.3° (Epoch: 12 November)

Event Time Altitude Azimuth Distance (km) Brightness Sun altitude
Rises 06:23:52 0° 133° (SE) 2,960 ? -11.1°
Reaches altitude 10° 06:26:17 10° 122° (ESE) 2,052 ? -10.7°
Maximum altitude 06:30:08 29° 63° (ENE) 1,193 ? -10.1°
Drops below altitude 10° 06:33:59 10° 4° (N) 2,058 ? -9.5°
Sets 06:36:25 0° 353° (N) 2,971 ? -9.1°
